Theta_e
348 347 351 349 350 349 348 347 346 346 346 347 344 342 340 337 336 336 340 341 339 339 338 340 341 342 339 330 331 337 329 327 327 323 323 323 335 332 328 325 323 329 336
349 351 349 349 348 348 347 348 347 346 346 343 341 341 338 338 338 339 337 340 339 339 340 338 339 339 342 341 339 329 338 338 334 327 327 332 329 332 325 322 322 322 324
351 348 349 350 348 346 347 347 347 346 341 340 338 337 337 338 338 339 338 337 341 340 340 340 339 339 339 341 341 341 331 333 339 336 335 326 326 325 334 329 323 323 324
350 352 349 349 347 350 348 348 349 346 341 338 336 337 336 337 339 338 340 338 337 337 341 341 341 340 341 340 341 342 342 342 337 334 333 336 332 328 327 328 326 326 329
351 352 349 348 349 348 348 346 347 344 339 337 336 334 337 338 338 338 337 340 341 340 338 341 340 336 340 342 340 341 342 342 342 342 341 335 332 334 332 333 332 328 327
350 351 348 351 348 348 347 346 344 340 339 339 336 333 337 339 338 337 338 336 336 339 341 342 344 344 343 339 341 341 341 341 341 341 342 342 340 335 333 331 334 334 331
351 349 349 349 349 346 347 342 340 337 338 338 336 338 336 337 338 337 335 332 333 333 337 340 343 343 345 341 338 340 341 340 341 341 340 340 341 341 338 335 332 331 328
353 351 350 348 348 345 343 341 339 338 337 337 337 335 336 338 337 335 332 330 330 330 333 336 339 335 343 340 340 337 338 338 338 339 340 341 341 341 342 341 336 334 334
352 351 350 346 348 339 332 339 340 338 337 338 336 337 335 337 334 335 335 331 330 329 330 331 334 332 325 334 337 332 332 336 338 338 338 339 339 340 341 342 342 342 341
350 352 352 347 342 334 338 339 338 336 334 336 336 336 331 334 335 334 333 333 331 330 331 329 328 330 329 329 327 322 320 321 324 328 332 335 337 337 338 339 340 341 341
350 349 348 346 342 333 338 339 339 332 340 335 334 334 336 333 333 331 331 331 331 332 331 330 329 327 328 328 327 325 318 317 318 319 320 322 324 327 330 332 334 336 338
350 347 345 344 341 336 340 340 339 338 333 337 336 335 333 332 332 332 331 330 330 330 331 331 330 330 327 327 327 325 324 318 317 317 317 318 319 319 320 322 325 328 331
346 347 345 345 342 335 340 339 339 338 337 336 333 336 334 333 332 331 330 330 330 331 332 332 331 332 329 328 328 327 327 321 321 318 317 317 318 318 319 319 319 320 322
345 345 345 345 342 340 341 339 335 334 336 336 335 335 335 332 334 331 331 331 330 331 331 331 332 331 330 329 329 327 326 329 327 323 321 319 318 318 318 318 318 318 318
344 343 347 345 343 339 340 337 331 336 333 335 334 335 334 333 331 330 331 332 332 331 331 331 330 330 328 330 330 329 329 330 328 325 321 321 320 318 318 318 318 317 318
343 342 346 342 338 332 333 329 334 335 335 334 332 330 333 331 331 332 332 331 331 330 329 329 330 329 329 330 330 329 328 328 328 328 326 326 324 320 318 317 318 317 317
348 344 337 329 324 331 322 318 333 334 336 335 333 329 332 334 333 332 330 331 329 329 329 327 328 329 328 329 328 329 330 329 329 328 328 327 326 323 320 317 317 316 316
347 338 323 319 324 324 329 323 320 333 334 334 332 331 334 334 334 334 332 332 332 329 330 329 329 329 329 328 329 327 328 328 328 327 326 323 325 325 324 322 318 318 319
346 332 325 317 322 321 323 320 322 325 336 334 333 333 334 334 333 333 332 330 330 329 330 328 327 327 327 328 326 328 326 327 326 326 327 327 325 325 324 322 321 322 323
346 327 326 317 318 322 325 327 328 322 334 337 334 333 335 335 334 334 334 334 332 332 330 328 327 329 328 326 327 327 326 326 326 326 326 325 325 324 323 322 321 323 324
346 332 328 322 317 323 329 329 329 322 326 337 334 333 334 334 334 334 333 330 331 329 330 329 327 326 326 326 327 326 327 327 326 326 324 324 325 324 322 320 322 324 325
351 344 338 325 320 324 334 333 331 321 335 336 335 335 334 336 335 332 327 327 329 328 327 327 328 327 326 327 327 327 327 326 324 323 324 323 322 320 319 321 323 323 322
349 346 343 329 322 329 333 328 328 328 335 336 335 334 335 336 331 326 327 328 326 326 328 328 327 327 326 324 324 324 324 324 323 322 321 321 321 322 322 322 323 322 321
349 347 344 330 334 336 333 331 328 328 332 332 334 335 336 335 333 329 328 327 325 328 329 328 328 326 326 325 320 318 318 318 319 319 321 322 323 322 322 323 321 320 319
348 345 341 336 337 340 339 336 331 333 333 335 333 336 337 330 329 327 327 326 325 327 327 326 325 324 323 318 318 318 320 319 319 320 321 321 321 321 320 320 318 319 318
347 344 341 340 342 342 339 337 335 332 335 334 335 335 329 327 326 327 326 326 327 328 327 326 326 323 320 321 318 318 319 321 320 320 320 319 318 318 320 319 319 318 319
Wind_Speed
10 7 7 7 8 6 6 6 7 7 8 9 10 10 9 9 9 6 7 11 11 6 5 6 7 10 7 7 10 10 7 7 7 7 8 9 9 8 8 8 8 9 8
11 9 10 7 6 7 8 5 9 8 8 9 9 9 10 8 8 7 5 10 10 6 7 7 8 7 10 9 7 10 10 10 8 8 9 9 9 10 9 8 9 10 11
11 11 8 8 8 13 11 9 6 10 11 9 9 9 9 8 6 6 3 3 8 9 5 7 8 8 7 8 11 10 9 11 11 10 9 9 10 10 10 9 9 10 11
10 8 10 6 10 6 10 10 9 8 8 9 9 8 8 7 7 4 2 2 3 4 9 7 6 9 7 8 9 11 11 11 10 12 11 13 11 11 12 12 11 10 10
12 10 10 11 12 8 11 9 6 8 9 8 8 7 5 4 5 2 3 4 3 3 1 6 8 11 9 8 9 10 11 11 13 13 14 13 13 14 14 14 13 13 12
13 12 10 12 10 10 8 7 5 9 8 5 7 6 2 1 1 2 3 3 3 3 4 2 6 7 5 9 11 12 12 13 13 14 15 15 16 15 15 16 17 16 16
10 16 8 10 7 8 7 11 8 7 6 3 6 3 4 2 1 2 2 2 3 2 1 1 3 0 3 5 9 12 13 14 14 15 16 16 16 17 18 18 17 17 18
10 12 9 8 11 6 8 6 5 3 4 4 4 4 3 5 4 4 1 3 4 3 3 4 2 6 2 6 10 9 10 14 15 15 15 17 17 18 19 20 21 21 21
13 12 11 8 7 9 6 4 2 4 2 3 5 2 3 4 1 4 3 1 3 1 2 5 2 3 2 4 4 8 8 10 12 14 17 18 18 19 20 21 22 23 24
9 10 7 8 8 4 8 3 3 4 3 2 1 2 4 3 5 1 4 4 1 2 4 2 5 7 4 2 10 9 7 9 11 13 16 18 19 20 21 22 24 24 24
12 11 10 8 5 3 8 7 4 4 4 3 2 3 2 3 2 2 6 2 5 3 3 6 5 5 8 7 4 15 11 10 11 12 13 15 17 19 22 23 24 25 26
9 12 11 10 7 5 7 4 6 6 6 7 5 4 4 3 2 4 6 7 8 8 6 7 8 7 7 9 10 15 15 13 13 13 13 14 15 16 18 20 22 25 27
12 14 13 11 7 7 7 6 7 6 5 3 4 5 5 5 4 5 7 9 11 10 8 8 8 8 8 9 10 15 19 17 15 14 16 17 17 17 17 18 19 22 24
12 15 16 14 12 10 8 8 6 5 6 6 6 6 6 6 6 6 7 10 12 15 15 14 9 10 9 7 12 17 15 17 21 19 17 17 19 19 19 20 20 20 21
17 18 16 15 13 11 10 10 7 10 10 9 9 10 8 7 7 7 8 7 9 12 15 14 11 8 11 11 9 15 17 17 21 23 21 21 20 21 21 21 22 22 24
24 20 21 17 16 15 13 11 11 10 11 10 9 10 12 9 8 9 10 9 10 12 16 13 13 14 14 14 18 22 20 21 22 22 25 23 22 21 23 25 25 25 26
25 24 26 20 19 17 12 9 12 14 11 11 12 14 13 12 8 8 9 9 10 12 16 18 18 18 19 20 20 19 19 21 23 23 23 26 31 30 27 26 26 27 27
32 30 28 25 25 17 14 12 11 14 14 14 16 15 14 11 13 10 8 12 12 15 16 19 21 20 19 21 21 24 23 21 22 21 26 27 23 23 26 29 30 29 27
35 32 31 30 27 22 20 15 16 17 16 17 17 17 15 14 15 14 15 15 14 15 15 19 20 22 23 24 23 23 27 24 25 25 28 27 25 26 32 35 33 31 28
37 37 34 34 32 27 24 17 17 19 19 18 19 18 17 18 17 17 16 18 18 17 17 21 21 22 22 26 23 22 27 27 25 25 25 26 29 33 32 32 35 32 32
39 40 38 38 38 34 25 21 20 22 21 19 18 17 17 16 16 18 19 19 22 22 22 22 24 25 26 24 24 28 29 26 25 24 27 29 29 31 33 34 34 35 31
36 40 42 41 41 35 24 23 25 21 19 22 19 17 17 20 23 24 23 23 25 28 30 29 25 26 28 27 23 24 22 25 28 22 26 32 30 35 37 32 32 34 38
34 41 46 44 42 33 26 26 25 21 18 18 20 20 20 20 23 24 26 24 24 24 26 26 29 27 26 22 22 25 24 26 29 28 29 36 27 29 30 31 34 36 43
31 39 43 43 27 25 26 26 27 23 23 24 23 22 22 22 22 24 24 31 24 22 25 26 23 26 23 23 26 28 32 31 28 26 22 32 28 33 33 35 41 48 53
29 30 33 37 29 23 22 22 26 25 24 24 24 22 21 24 27 31 31 23 23 25 23 22 23 25 28 26 21 19 19 21 25 24 23 25 30 33 34 40 48 48 52
23 19 21 21 21 20 20 23 23 21 22 23 24 26 23 27 31 27 22 22 21 19 17 18 20 21 23 22 22 23 25 22 25 26 21 26 31 34 38 42 40 51 56
Wind_Direction
250 254 266 283 302 318 301 317 310 312 307 319 315 326 321 320 302 293 262 291 307 267 247 227 215 225 219 218 221 223 213 204 216 225 223 221 220 230 243 250 253 248 248
271 256 282 286 278 290 263 288 282 312 316 333 330 322 325 324 314 302 270 283 307 296 259 246 232 231 228 231 234 232 229 223 213 216 223 228 235 235 245 251 253 254 259
242 249 263 266 275 269 295 301 295 304 355 311 317 320 327 322 320 310 300 267 287 308 310 273 250 243 248 237 233 236 228 233 237 235 229 233 239 247 247 252 257 257 257
248 253 269 268 278 281 277 292 286 294 317 307 309 316 324 334 326 357 9 300 268 273 305 292 284 269 260 246 245 244 234 238 236 237 237 239 239 245 250 254 258 256 256
252 259 266 268 270 272 291 285 277 318 308 306 301 309 319 338 353 25 30 38 21 10 270 263 309 296 266 260 249 248 249 246 245 248 245 245 245 247 251 253 259 261 260
242 255 259 255 257 279 290 278 304 298 295 303 305 284 289 9 4 30 42 36 19 44 322 351 317 273 305 299 265 251 249 251 249 247 249 248 246 248 251 256 258 259 261
247 251 252 271 270 267 255 288 301 297 305 296 298 266 240 84 111 113 58 41 37 7 29 336 12 340 267 287 283 259 258 259 260 257 250 248 250 249 250 252 256 258 260
236 271 253 249 266 271 297 284 295 296 289 274 318 286 251 196 167 133 45 28 47 38 21 18 26 203 173 298 281 273 266 264 266 263 260 259 258 256 254 254 254 256 258
231 236 238 211 243 271 277 283 304 289 269 292 315 317 292 45 154 186 141 292 35 15 43 0 26 4 176 298 4 286 286 277 276 275 272 269 266 264 262 261 260 257 258
222 239 224 237 241 223 230 264 264 198 240 236 281 204 294 334 333 117 221 205 310 339 335 345 326 312 333 311 302 296 299 295 288 279 275 276 274 271 267 263 263 264 261
213 215 221 224 246 246 244 221 248 219 241 225 238 252 193 256 272 273 307 322 313 279 281 316 299 301 308 312 286 300 310 297 288 284 279 274 271 269 270 270 266 264 264
219 209 210 219 223 210 223 254 254 237 210 211 215 233 250 262 262 288 290 298 304 297 284 291 279 282 295 289 292 281 295 298 291 290 292 286 282 277 272 270 269 267 264
212 229 206 222 228 227 203 226 252 221 253 239 240 225 244 245 254 278 289 293 304 309 295 267 276 263 270 281 283 287 298 303 297 292 289 290 288 288 287 282 277 271 267
212 223 230 213 212 220 215 223 218 223 252 257 244 240 243 255 258 269 277 297 306 305 311 287 270 287 269 272 265 283 301 299 293 289 283 284 285 285 283 282 282 282 278
212 212 212 201 206 210 219 233 205 235 224 246 249 256 254 256 268 272 278 288 290 280 293 300 311 285 294 284 257 280 288 287 286 289 294 286 279 279 282 282 281 282 279
206 216 210 209 209 207 208 234 227 231 240 246 252 255 253 260 268 274 291 286 282 293 300 298 296 297 297 286 287 288 291 289 296 300 299 299 288 276 276 278 279 277 280
224 208 227 219 221 210 225 249 225 220 236 254 253 238 247 254 263 269 279 289 300 300 305 302 304 300 295 293 292 288 285 288 288 289 293 289 290 294 288 281 278 278 274
217 228 231 227 222 213 217 232 251 227 236 234 241 239 239 248 262 276 276 278 274 284 287 293 303 303 298 298 294 296 292 288 288 285 283 285 292 292 297 297 295 288 280
225 231 231 229 220 216 228 239 266 250 234 232 240 240 242 243 247 252 255 263 272 281 288 294 297 294 290 287 292 289 293 289 289 288 284 289 293 293 294 295 297 298 289
227 232 233 229 227 226 237 249 261 250 236 236 240 235 238 243 252 263 271 270 275 274 284 291 290 291 292 293 284 287 291 293 293 291 286 284 283 286 289 292 292 289 288
236 236 232 234 233 232 235 249 256 237 239 237 235 239 243 253 255 260 264 275 276 277 285 288 290 293 291 293 295 295 288 289 288 290 289 286 287 287 283 285 286 285 285
230 234 231 233 237 237 236 248 268 233 228 232 233 233 241 243 246 255 265 276 278 279 282 283 284 286 286 291 290 289 289 288 289 286 287 286 283 281 282 283 281 280 280
231 234 236 234 232 238 237 265 248 223 223 232 237 244 243 249 255 264 274 276 283 285 278 282 284 287 286 291 289 288 287 281 284 288 284 286 293 287 287 287 285 280 278
235 233 235 230 236 246 251 255 233 225 230 230 232 242 251 252 256 274 284 289 281 275 269 277 279 287 287 285 282 286 289 292 294 299 289 288 291 289 289 288 289 285 284
225 233 236 232 241 248 248 251 229 225 238 243 248 243 246 263 271 276 289 274 272 269 278 283 282 278 285 292 299 299 293 293 290 290 292 293 295 295 296 290 288 296 299
230 226 222 228 235 246 257 239 235 231 236 249 250 249 256 266 276 282 272 271 270 278 281 275 278 284 298 302 306 296 292 284 295 297 299 300 299 298 299 302 302 313 316